Terminal Aerodrome Forecast
Issued by NWS Blacksburg, VA

Current Version | Previous Version | Graphics & Text | Print | Product List | Glossary On
Versions: 1 2 3 4 5 6 7 8 9 10 11 12 13 14 15 16 17 18 19 20 21 22 23 24 25 26 27 28 29 30 31 32 33
000
FTUS41 KRNK 261139
TAFBLF
TAF
KBLF 261139Z 2612/2712 24004KT P6SM SCT030 SCT250
      TEMPO 2612/2614 BKN030
     FM261400 24006KT P6SM SCT045 SCT250
     FM261900 26006KT P6SM VCSH BKN050 BKN250
     FM270200 VRB03KT P6SM SCT050 BKN120=

USA.gov is the U.S. government's official web portal to all federal, state and local government web resources and services.